Temperature
21 20 20 20 20 22 24 25 26 26 27 27 26 26 24 23 22 20 19 20 20 19 19 20 19 19 19 19 19 19 19 19 19 19 19 19 19 19 19 19 19 19 19 19 19 19 19 19 19
21 20 20 20 21 22 23 25 26 27 27 27 26 25 24 22 21 19 19 20 20 19 19 19 19 19 19 19 19 19 19 19 19 19 19 19 19 19 19 19 19 19 19 19 19 19 19 19 19
21 20 21 22 23 23 23 25 26 27 27 26 26 24 22 20 19 19 19 19 19 19 19 19 19 19 19 19 19 19 19 18 18 18 18 18 18 18 19 19 19 19 19 19 19 19 19 19 19
21 21 22 23 24 25 25 26 26 27 26 26 25 23 20 19 19 19 19 19 19 19 19 19 19 19 19 19 19 19 19 18 18 18 18 18 18 18 18 18 18 19 19 19 19 19 19 19 19
21 22 23 23 24 26 26 26 27 26 26 25 24 22 20 19 19 19 19 19 19 18 18 18 19 19 19 19 19 19 19 19 18 18 18 18 18 18 18 18 18 18 18 19 19 19 19 19 19
22 24 23 23 24 26 26 26 26 26 26 25 24 22 19 19 18 19 19 19 19 18 18 18 18 18 18 18 18 18 18 18 18 18 18 18 18 18 18 18 18 18 18 18 18 18 19 19 19
23 24 24 24 25 25 26 26 26 26 25 24 24 22 20 19 19 19 18 19 18 18 18 18 18 18 18 18 18 18 18 18 18 18 18 18 18 18 18 18 18 18 18 18 18 18 18 18 18
25 25 25 24 25 25 26 26 26 25 24 24 23 22 20 19 19 19 19 19 18 18 18 18 18 18 18 18 18 18 18 18 18 18 18 18 18 18 18 18 18 18 18 18 18 18 18 18 18
26 25 23 24 26 25 26 26 25 24 23 22 21 21 20 20 20 19 19 19 18 18 18 18 18 17 17 17 17 17 17 17 17 18 18 18 18 18 18 18 18 18 18 18 18 18 18 18 18
27 25 24 26 27 27 26 26 26 25 24 22 21 21 20 20 20 20 19 19 18 18 18 17 17 17 17 17 17 17 17 17 17 17 17 18 18 18 18 18 18 18 18 18 18 18 18 18 18
28 26 26 27 27 27 26 26 26 25 24 23 22 21 21 21 20 20 19 19 18 18 17 17 17 17 17 17 16 16 16 17 17 17 17 17 17 17 17 17 18 17 18 18 18 18 18 18 18
28 28 28 27 26 26 26 26 25 24 23 22 22 21 21 21 20 20 19 19 18 17 17 17 16 16 16 16 16 16 16 16 16 16 16 16 17 17 17 17 17 17 17 17 17 18 18 18 18
27 27 27 26 25 26 26 25 24 23 22 22 21 21 21 20 20 19 19 19 18 17 17 16 16 15 15 15 15 15 15 16 16 16 16 16 16 16 16 17 17 17 17 17 17 17 17 18 18
26 25 25 26 26 25 25 25 24 23 22 22 21 21 21 20 20 19 19 18 18 17 17 16 15 15 15 15 15 15 15 15 15 15 15 15 16 16 16 16 16 17 17 17 17 17 17 18 18
27 26 26 26 26 26 25 25 25 23 22 22 22 21 21 20 19 19 19 18 17 17 16 16 15 15 14 14 14 14 14 15 15 15 15 15 15 15 15 15 16 16 16 17 17 17 17 17 17
28 27 25 26 25 25 25 24 25 22 23 22 22 22 21 20 20 19 18 18 17 16 16 16 15 14 14 14 14 14 14 14 14 14 14 15 15 15 15 15 15 16 16 16 16 17 17 17 17
26 25 24 24 25 26 25 25 24 23 23 23 23 22 22 21 20 19 18 17 17 16 16 15 15 14 14 14 14 14 14 14 14 14 14 14 14 14 14 15 15 15 15 16 16 16 16 17 17
24 23 24 25 26 26 26 25 25 24 23 23 23 23 22 22 21 19 18 17 17 16 16 15 15 14 14 14 13 13 13 13 13 13 14 14 14 14 14 14 14 15 15 15 15 16 16 16 16
25 25 26 27 26 26 26 26 26 25 24 23 23 23 23 22 21 19 18 18 17 16 16 15 15 14 14 13 13 13 13 13 13 13 13 13 13 13 14 14 14 14 15 15 15 15 16 16 16
26 26 27 27 27 26 25 26 27 26 24 24 24 23 23 22 21 20 19 18 17 16 16 15 15 14 13 13 13 13 13 13 13 13 13 13 13 13 13 13 14 14 14 14 15 15 15 16 16
26 27 27 26 27 26 25 25 26 26 25 24 23 23 22 21 21 20 18 18 17 16 15 15 14 14 13 13 13 13 13 13 13 13 13 13 13 13 13 13 13 14 14 14 14 15 15 15 16
26 27 26 26 25 25 26 24 26 25 24 24 23 23 22 21 20 19 18 17 17 16 15 15 14 14 13 13 12 12 12 12 12 12 12 12 13 13 13 13 13 13 13 14 14 14 14 15 15
27 26 26 26 25 25 26 25 26 25 24 24 24 23 22 21 20 19 18 17 17 16 15 14 14 13 13 12 12 12 12 12 12 12 12 12 12 12 12 13 13 13 13 13 14 14 14 14 15
27 26 26 26 25 24 26 26 25 25 25 24 24 23 22 21 20 19 18 17 16 16 15 14 14 13 13 13 13 13 13 12 12 12 12 12 12 12 12 12 12 13 13 13 13 14 14 14 14
26 25 24 24 24 25 27 25 25 24 25 24 24 23 22 21 20 19 18 17 17 16 15 15 14 14 13 13 13 13 13 12 12 12 12 12 12 12 12 12 12 12 12 13 13 13 13 14 14
26 26 24 24 25 26 26 25 24 25 24 23 23 22 21 20 20 19 18 17 17 16 16 15 14 14 14 13 13 13 13 12 12 12 12 12 12 12 12 12 12 12 12 12 13 13 13 13 14
26 26 27 25 25 25 26 26 24 24 24 23 23 22 21 21 20 19 18 18 17 17 16 15 15 14 14 13 13 13 12 12 12 12 12 12 11 11 12 12 12 12 12 12 12 13 13 13 13
26 26 26 25 24 25 26 26 24 23 24 24 23 23 22 21 20 19 19 18 17 17 16 16 15 15 14 14 13 13 13 12 12 12 12 11 11 11 11 12 12 12 12 12 12 12 12 13 13
25 25 25 25 25 24 24 24 25 24 24 24 24 23 22 21 20 20 19 18 17 17 17 16 16 15 14 14 13 13 13 12 12 12 12 11 11 11 11 11 11 11 11 11 12 12 12 12 13
26 26 25 24 25 25 24 24 25 25 24 24 24 23 22 21 20 20 19 18 18 17 17 16 16 15 15 14 13 13 13 13 12 12 12 11 11 11 11 11 11 11 11 11 11 11 12 12 12
Wind_Speed
12 11 7 2 2 2 4 7 10 8 7 9 11 11 13 13 9 6 2 7 8 11 14 12 9 7 5 4 3 2 1 0 1 1 1 2 2 2 2 2 2 2 2 2 2 3 3 3 3
11 8 5 3 1 1 4 6 8 9 8 6 9 13 12 11 10 6 4 6 8 11 12 12 10 8 5 4 2 1 1 1 2 2 3 3 4 4 3 3 3 3 2 2 2 2 2 2 2
10 7 4 3 0 3 3 5 6 9 9 8 9 11 8 6 7 4 4 5 9 12 14 13 11 9 7 5 3 2 2 2 3 4 4 5 5 5 5 5 5 4 4 3 3 2 2 2 2
5 4 4 2 3 8 8 6 6 7 9 10 10 9 7 7 4 5 6 8 11 11 13 12 11 9 7 5 4 3 2 2 3 4 5 6 6 7 7 7 6 6 6 5 4 3 3 3 3
5 3 3 1 4 7 8 7 8 8 9 12 12 10 7 8 7 7 9 10 10 9 11 10 9 8 7 6 5 3 2 2 3 4 5 6 7 7 8 8 8 8 7 6 5 4 4 4 4
3 3 2 1 4 6 7 7 7 9 9 9 9 9 6 7 7 7 8 8 8 7 7 7 7 7 6 5 4 3 2 2 2 3 4 5 6 7 8 9 9 9 9 7 7 6 6 6 5
5 4 2 2 4 5 6 6 8 7 9 9 7 7 6 7 6 6 7 6 6 5 4 4 4 4 4 4 2 2 1 2 2 2 3 4 6 7 8 10 10 10 9 9 8 7 7 7 7
5 4 4 3 4 5 5 6 7 8 8 9 8 7 7 7 6 6 6 5 4 4 3 2 2 2 1 1 2 1 2 3 4 4 5 5 6 8 9 10 10 10 9 9 9 9 9 9 9
6 3 3 3 4 6 5 6 7 9 11 12 12 11 8 7 6 5 4 4 5 5 4 3 2 2 1 3 2 3 4 5 6 6 7 7 7 8 8 10 10 9 9 9 9 10 10 10 11
6 2 2 3 5 7 5 5 5 6 9 9 10 9 7 5 5 5 4 5 5 5 5 4 3 3 2 3 2 3 3 4 6 6 5 5 5 6 7 7 9 9 9 10 10 11 11 11 11
4 1 3 4 6 6 5 4 2 3 5 7 8 8 6 4 5 5 6 6 6 6 7 7 7 6 5 2 3 2 3 5 6 6 5 5 4 5 6 4 6 8 8 8 8 8 8 9 10
3 2 3 5 4 3 3 4 3 6 7 9 8 5 4 4 5 5 6 6 5 6 6 6 7 6 6 6 4 4 3 2 3 5 6 4 2 3 3 3 4 5 5 5 5 4 6 8 11
3 3 4 6 3 2 2 3 3 6 7 7 6 4 3 4 5 5 5 6 6 6 5 6 7 7 6 5 3 4 2 2 4 4 5 5 3 3 3 2 3 4 5 4 3 3 4 5 7
7 6 6 6 6 4 4 4 5 7 7 6 4 3 3 4 4 4 6 7 7 7 6 6 7 6 6 6 6 5 4 5 5 3 5 5 3 3 3 4 4 4 5 5 4 5 6 5 5
8 8 7 7 6 5 4 6 8 11 9 6 5 4 3 1 2 3 6 6 6 6 6 6 6 7 7 7 7 6 6 6 4 4 7 7 5 3 3 4 4 4 6 6 5 6 5 6 6
8 9 8 8 7 5 4 5 9 11 8 7 5 4 4 3 3 3 6 6 7 6 6 5 7 7 6 5 5 4 5 5 4 6 7 8 8 6 3 3 3 4 5 4 5 5 6 6 5
9 7 6 5 9 6 5 4 10 10 8 7 6 5 5 4 2 5 5 5 5 5 5 5 5 5 6 6 5 4 5 4 4 5 5 8 9 10 5 3 3 3 3 4 5 5 5 5 6
3 4 7 6 8 6 6 6 9 11 8 6 5 5 5 3 3 6 5 3 3 3 5 5 5 5 6 5 5 5 5 5 4 4 4 7 7 8 6 5 4 3 3 3 4 5 5 5 5
4 8 9 1 6 2 7 9 6 11 9 7 7 6 4 2 4 7 4 3 3 4 5 5 5 5 5 4 4 5 5 5 4 3 5 7 7 7 5 5 5 4 3 4 5 4 5 4 4
10 10 8 1 5 1 8 10 5 9 8 6 5 4 2 2 3 5 4 4 4 4 5 5 6 5 5 3 4 4 5 4 3 3 3 6 6 6 6 6 5 4 4 5 5 4 3 3 4
11 7 5 6 3 6 8 9 8 9 7 6 4 3 4 1 2 4 5 4 3 4 5 6 6 6 6 6 4 5 5 4 4 5 4 4 5 5 4 5 6 5 4 4 5 5 5 4 4
6 5 4 6 7 7 6 4 6 10 8 8 7 5 3 2 2 3 2 3 4 5 5 6 6 6 6 6 5 6 5 4 5 4 4 5 5 4 4 4 5 5 4 5 5 5 4 4 4
4 4 5 7 8 10 8 7 4 9 6 6 6 4 3 3 3 2 2 3 3 4 4 3 4 4 4 5 5 4 4 4 4 5 5 5 5 4 4 4 4 5 4 4 4 5 5 4 5
1 4 7 7 7 9 7 5 4 5 5 5 5 5 5 5 4 3 3 3 2 2 2 1 1 2 2 4 5 4 4 5 6 6 5 5 4 4 5 5 5 5 4 5 5 5 5 5 5
5 7 5 7 7 4 7 2 3 10 8 5 4 4 5 5 3 3 3 2 2 1 0 1 1 2 2 4 5 5 4 5 5 5 6 6 4 4 6 6 6 5 4 5 5 5 5 5 6
6 8 7 6 3 3 6 4 7 10 7 5 4 4 3 4 4 3 3 2 2 2 1 1 1 1 1 3 4 4 5 4 4 5 5 5 4 4 6 6 6 6 5 5 4 4 5 5 5
5 6 3 6 9 5 6 7 8 7 7 5 4 5 5 4 5 4 4 2 2 2 1 0 1 2 1 2 3 3 4 4 5 5 5 4 5 5 6 7 7 6 6 5 4 4 5 5 5
6 8 3 4 5 5 4 6 6 8 5 4 5 6 5 5 5 5 5 3 2 1 1 2 2 2 1 2 3 3 3 3 4 4 5 5 6 6 7 7 6 6 5 5 4 4 5 5 5
7 5 4 5 5 4 3 4 6 7 4 1 1 3 5 6 5 4 4 3 2 2 2 3 2 2 1 1 3 4 3 3 4 4 4 5 5 6 7 7 7 6 6 6 5 5 6 6 6
4 6 6 5 4 2 3 3 6 7 4 1 1 1 4 4 4 5 5 4 3 2 1 1 0 1 1 1 3 4 4 3 3 5 5 6 6 6 6 6 6 7 7 6 6 6 7 6 6
Wind_Direction
182 195 197 205 246 250 41 51 52 39 40 45 45 62 68 51 44 75 31 22 65 98 118 119 112 108 102 97 88 78 62 47 241 223 228 240 246 255 266 291 306 326 343 356 0 4 10 16 17
193 195 206 226 257 87 54 47 53 44 37 48 61 64 66 59 48 70 31 20 68 84 95 103 100 91 81 72 59 27 346 312 286 264 253 256 260 263 267 273 281 288 296 309 322 331 340 344 351
218 207 229 227 344 77 85 50 51 56 42 47 66 58 52 42 39 47 19 40 73 80 84 89 89 85 78 69 55 28 352 322 300 284 272 268 269 269 268 269 270 273 277 278 283 293 304 306 310
213 219 244 246 60 68 71 57 49 62 50 51 73 73 68 44 41 40 40 59 70 78 84 82 80 79 75 68 58 40 4 317 299 288 280 274 272 272 269 268 266 266 268 268 266 274 278 282 284
226 240 265 325 78 77 65 51 52 63 57 56 73 89 84 67 64 56 51 53 65 71 80 84 83 81 75 67 57 43 7 334 300 286 284 282 280 278 274 268 265 264 262 260 260 258 261 267 271
250 255 296 20 94 85 73 54 56 63 58 54 82 93 81 78 70 66 66 64 65 68 74 90 99 98 93 84 71 53 13 338 305 283 275 273 277 281 277 270 265 263 261 258 257 253 256 260 262
256 271 247 138 105 92 79 56 52 63 56 43 59 93 100 84 83 85 81 79 77 74 74 80 92 103 118 116 95 61 358 308 287 272 266 264 264 267 270 266 262 261 258 256 254 251 252 255 255
265 288 333 39 87 94 89 77 60 60 64 49 44 89 97 97 108 99 97 94 85 75 64 66 55 50 66 144 163 212 276 277 262 249 243 250 256 257 258 256 253 253 254 255 254 252 250 251 251
264 273 1 18 67 105 116 105 88 82 79 72 68 79 97 110 110 100 93 85 66 51 37 29 23 11 307 281 247 226 248 256 258 250 238 239 247 248 245 244 247 245 245 249 255 253 249 249 248
229 291 68 19 55 106 110 100 118 118 106 98 97 101 106 104 92 80 66 52 41 31 23 14 356 331 320 317 310 251 258 249 252 255 239 226 245 254 257 252 242 239 241 244 247 251 250 246 246
246 114 110 74 75 105 114 107 83 113 106 113 117 112 103 91 70 50 43 40 25 27 15 359 0 347 343 333 322 303 264 247 248 254 254 243 248 258 262 253 239 232 234 237 240 240 243 241 243
210 80 84 92 86 112 120 116 84 61 83 95 98 103 101 67 48 40 28 19 16 37 9 2 1 347 349 347 344 296 263 242 244 236 240 235 222 236 241 233 236 223 215 221 230 228 246 256 256
185 126 111 110 135 133 118 127 111 107 106 109 119 118 88 56 25 23 28 12 14 30 7 20 2 356 347 338 317 317 314 308 299 284 266 245 221 241 250 243 234 230 216 208 213 228 240 258 273
136 149 162 160 158 157 175 172 173 154 152 153 167 157 107 65 7 359 22 9 11 17 5 31 3 358 346 344 336 325 325 315 301 300 294 284 254 229 235 243 237 230 224 216 211 224 235 242 263
142 170 181 180 187 174 211 225 203 150 168 179 200 177 120 91 320 10 29 4 18 7 7 22 357 9 0 352 340 327 321 325 332 332 320 312 299 277 260 247 239 233 227 220 214 218 230 237 247
205 212 213 184 190 164 223 277 139 145 180 196 213 185 161 198 240 64 42 11 16 4 2 23 9 359 352 350 330 324 329 340 340 337 336 333 326 312 294 274 258 240 228 215 216 216 222 230 234
222 244 254 175 190 182 220 276 145 164 191 212 210 217 195 212 155 80 53 22 11 358 359 30 20 350 354 351 335 333 338 340 334 342 353 346 342 334 322 297 280 269 242 227 232 219 214 225 227
233 265 269 224 179 206 245 261 171 175 194 229 231 229 220 205 107 92 69 44 7 7 9 29 13 6 6 8 348 345 345 340 338 348 352 350 337 330 329 310 296 285 266 249 241 238 224 220 220
275 263 275 117 130 239 280 278 205 173 183 217 233 232 234 155 100 103 86 63 23 30 20 11 15 15 19 15 343 342 338 330 332 344 356 349 338 335 320 311 315 310 282 263 251 241 235 228 213
260 269 287 73 114 303 288 282 245 169 182 206 253 284 298 83 65 98 91 65 41 38 22 4 22 18 19 6 344 331 330 321 330 339 346 349 340 337 332 329 314 305 299 285 266 248 235 240 207
264 277 332 343 324 264 265 267 222 162 167 181 205 259 299 23 40 45 49 36 36 49 31 10 22 19 19 0 359 344 332 331 351 348 344 336 328 330 330 324 319 308 302 289 279 259 236 238 232
281 55 6 314 292 277 226 290 174 155 168 185 190 202 212 133 106 84 68 42 26 49 40 18 19 16 16 2 5 345 338 344 337 335 329 335 332 336 324 318 318 310 301 293 287 275 250 228 240
40 28 302 281 274 280 248 248 157 148 172 171 157 163 146 125 119 107 95 72 37 50 45 20 16 16 13 345 328 317 342 334 325 326 332 338 328 327 335 333 320 313 305 302 298 299 279 243 229
45 265 254 248 257 258 234 240 138 139 117 111 128 143 141 137 138 143 127 122 99 77 64 11 10 5 345 320 316 325 340 331 325 332 338 332 322 330 351 343 333 317 317 310 299 287 279 264 247
235 255 254 225 218 219 121 181 85 94 83 77 91 113 126 135 156 154 144 132 100 70 79 319 337 346 354 330 325 340 350 340 335 348 337 327 330 340 347 346 329 320 312 307 304 294 281 268 257
230 261 282 299 287 122 152 177 103 101 100 103 117 122 136 162 163 150 146 156 183 216 198 229 319 313 328 318 339 345 353 357 344 343 328 330 337 330 333 334 319 314 313 316 315 304 293 283 270
268 240 296 319 296 285 175 130 122 132 145 152 165 167 184 185 165 176 171 188 206 207 154 171 285 302 324 328 331 334 1 345 338 336 333 341 332 324 334 320 317 319 323 321 316 300 299 301 282
288 327 306 256 298 286 168 153 145 148 148 157 181 183 187 180 183 176 161 185 213 188 168 215 225 244 339 338 322 350 346 337 327 317 330 327 317 319 316 318 320 321 329 331 326 311 300 296 285
194 221 250 279 281 297 346 72 84 102 88 81 198 159 168 174 175 168 163 181 182 223 234 219 212 187 138 347 336 338 334 318 310 320 326 316 318 325 326 330 332 337 338 334 332 322 317 309 300
246 249 244 258 293 265 276 107 107 111 117 160 315 142 152 154 162 169 171 179 193 220 275 305 330 61 104 70 338 322 304 305 342 346 340 338 329 325 325 331 337 340 339 336 333 329 326 314 306
Height
1521 1522 1524 1526 1527 1528 1525 1517 1512 1512 1511 1512 1513 1513 1519 1523 1527 1538 1537 1535 1535 1534 1534 1535 1536 1537 1539 1540 1541 1542 1543 1544 1545 1546 1547 1547 1548 1548 1549 1549 1549 1549 1549 1549 1549 1549 1549 1549 1549
1521 1523 1526 1526 1528 1534 1530 1518 1515 1514 1513 1513 1514 1517 1521 1527 1531 1535 1535 1536 1536 1535 1535 1536 1537 1537 1538 1539 1541 1542 1543 1544 1544 1545 1546 1547 1547 1548 1548 1548 1548 1549 1549 1549 1549 1549 1549 1549 1550
1521 1524 1525 1523 1525 1529 1528 1517 1515 1515 1515 1515 1517 1522 1527 1533 1535 1536 1536 1536 1536 1535 1536 1536 1537 1538 1538 1539 1540 1541 1542 1542 1543 1544 1545 1545 1546 1547 1547 1547 1548 1548 1548 1548 1548 1549 1549 1549 1549
1522 1524 1523 1522 1525 1518 1517 1516 1515 1516 1517 1517 1519 1526 1533 1536 1537 1537 1537 1537 1536 1536 1536 1537 1537 1537 1538 1538 1539 1540 1540 1541 1542 1542 1543 1544 1544 1545 1546 1546 1546 1547 1547 1547 1548 1548 1548 1548 1549
1522 1522 1522 1523 1521 1515 1515 1516 1517 1518 1519 1520 1523 1530 1535 1538 1537 1537 1537 1537 1537 1536 1536 1536 1537 1537 1537 1537 1538 1538 1539 1539 1540 1540 1541 1542 1542 1543 1544 1544 1545 1545 1546 1546 1546 1547 1547 1548 1548
1522 1519 1527 1529 1522 1516 1516 1518 1518 1520 1521 1523 1525 1530 1537 1539 1538 1538 1537 1537 1537 1537 1537 1536 1536 1536 1536 1536 1536 1536 1537 1537 1537 1538 1539 1539 1540 1541 1542 1542 1543 1543 1544 1544 1545 1545 1546 1546 1547
1522 1518 1522 1521 1520 1519 1518 1519 1520 1522 1524 1526 1527 1532 1538 1539 1539 1539 1538 1538 1537 1537 1537 1537 1536 1535 1534 1534 1534 1534 1534 1535 1535 1535 1536 1537 1537 1538 1539 1540 1541 1541 1542 1542 1543 1544 1544 1545 1545
1518 1516 1519 1520 1519 1520 1518 1520 1523 1524 1527 1529 1529 1532 1537 1540 1539 1539 1539 1538 1538 1538 1537 1536 1535 1534 1533 1532 1532 1532 1532 1532 1532 1532 1533 1534 1534 1535 1536 1537 1538 1539 1539 1540 1541 1542 1543 1543 1544
1516 1518 1525 1520 1516 1518 1518 1521 1524 1527 1529 1531 1533 1535 1538 1539 1539 1540 1540 1539 1539 1538 1537 1536 1535 1534 1532 1531 1530 1529 1529 1529 1529 1529 1529 1530 1531 1532 1533 1533 1534 1535 1537 1538 1539 1540 1540 1541 1542
1512 1518 1520 1515 1512 1516 1518 1520 1523 1526 1529 1533 1535 1537 1538 1539 1539 1540 1540 1539 1539 1538 1537 1536 1534 1533 1532 1530 1529 1528 1527 1526 1526 1526 1526 1526 1527 1528 1529 1530 1531 1532 1533 1535 1536 1537 1538 1539 1540
1508 1511 1512 1513 1514 1516 1519 1522 1524 1525 1529 1532 1535 1537 1538 1539 1539 1539 1539 1539 1538 1537 1536 1535 1533 1532 1531 1529 1527 1526 1525 1525 1524 1524 1523 1524 1524 1525 1526 1526 1527 1529 1530 1531 1533 1534 1535 1536 1537
1507 1508 1510 1513 1516 1517 1519 1522 1525 1527 1531 1533 1535 1537 1538 1539 1539 1539 1539 1539 1538 1536 1535 1534 1532 1531 1529 1527 1526 1524 1524 1523 1523 1522 1521 1521 1521 1522 1522 1523 1524 1525 1526 1527 1529 1531 1532 1533 1535
1506 1509 1512 1515 1517 1518 1520 1523 1526 1530 1532 1534 1536 1537 1538 1539 1539 1539 1538 1538 1537 1535 1534 1532 1531 1529 1527 1526 1524 1523 1522 1521 1521 1520 1520 1519 1519 1519 1519 1520 1520 1521 1522 1524 1526 1528 1529 1530 1531
1506 1511 1513 1515 1517 1518 1521 1523 1526 1529 1532 1534 1535 1536 1537 1538 1539 1538 1537 1537 1536 1534 1533 1531 1529 1528 1526 1524 1522 1521 1520 1520 1519 1519 1518 1517 1517 1516 1516 1516 1517 1517 1518 1520 1522 1524 1526 1527 1528
1504 1509 1511 1513 1515 1516 1519 1521 1521 1526 1530 1532 1534 1535 1536 1537 1538 1537 1537 1536 1535 1534 1532 1530 1529 1527 1525 1522 1521 1519 1519 1518 1517 1516 1516 1515 1515 1514 1514 1514 1514 1514 1515 1517 1518 1520 1522 1523 1524
1503 1507 1514 1510 1514 1516 1522 1524 1519 1525 1528 1530 1532 1533 1534 1535 1536 1535 1535 1535 1534 1533 1531 1529 1528 1526 1524 1521 1519 1518 1517 1516 1515 1514 1513 1513 1512 1512 1511 1511 1511 1511 1512 1513 1515 1516 1518 1519 1521
1506 1514 1515 1513 1511 1514 1518 1520 1520 1523 1525 1527 1529 1530 1531 1532 1533 1533 1534 1534 1533 1532 1530 1528 1527 1525 1523 1521 1519 1517 1516 1514 1513 1512 1511 1510 1509 1509 1508 1508 1508 1509 1509 1510 1511 1513 1514 1516 1517
1516 1519 1517 1512 1509 1511 1514 1514 1515 1519 1522 1524 1526 1527 1528 1530 1531 1531 1532 1532 1532 1531 1529 1528 1526 1524 1522 1520 1517 1516 1514 1513 1512 1510 1509 1508 1507 1506 1506 1505 1505 1506 1506 1507 1508 1509 1511 1512 1514
1510 1511 1509 1506 1507 1510 1512 1510 1509 1514 1518 1522 1523 1524 1526 1527 1529 1529 1530 1531 1531 1530 1528 1527 1525 1523 1521 1518 1516 1515 1513 1512 1511 1509 1508 1506 1505 1504 1503 1503 1502 1503 1503 1504 1505 1506 1507 1508 1510
1506 1508 1505 1503 1505 1509 1511 1508 1504 1509 1514 1518 1521 1522 1523 1525 1528 1529 1529 1530 1529 1528 1527 1526 1524 1522 1520 1518 1516 1514 1513 1511 1510 1508 1506 1505 1503 1502 1501 1500 1500 1500 1500 1501 1502 1502 1503 1505 1507
1503 1504 1505 1508 1505 1505 1510 1511 1504 1505 1511 1516 1519 1522 1523 1524 1526 1528 1528 1529 1528 1527 1526 1525 1523 1522 1520 1517 1516 1513 1512 1511 1509 1507 1505 1504 1502 1500 1499 1498 1497 1497 1497 1498 1498 1499 1500 1501 1503
1505 1502 1505 1508 1513 1512 1507 1520 1505 1503 1509 1512 1516 1519 1521 1523 1525 1526 1527 1527 1527 1526 1525 1524 1523 1521 1519 1517 1515 1513 1511 1510 1508 1507 1505 1503 1501 1499 1498 1496 1495 1495 1495 1495 1495 1496 1497 1498 1499
1502 1503 1505 1507 1511 1513 1506 1514 1507 1503 1508 1510 1513 1516 1519 1521 1523 1525 1526 1526 1526 1525 1524 1523 1522 1520 1518 1516 1515 1513 1511 1509 1508 1506 1504 1502 1500 1498 1497 1495 1494 1493 1493 1492 1492 1493 1494 1495 1496
1502 1505 1505 1506 1510 1520 1503 1510 1510 1505 1506 1508 1511 1515 1517 1520 1522 1523 1524 1524 1525 1524 1523 1522 1521 1519 1517 1516 1514 1513 1511 1509 1507 1505 1503 1501 1499 1498 1496 1494 1492 1491 1490 1490 1489 1489 1490 1491 1492
1504 1511 1520 1521 1524 1513 1497 1508 1509 1503 1504 1507 1511 1514 1516 1518 1520 1522 1523 1523 1523 1523 1522 1521 1520 1518 1517 1515 1514 1512 1510 1508 1506 1504 1502 1500 1498 1497 1494 1492 1491 1489 1488 1487 1487 1486 1487 1487 1488
1502 1506 1520 1526 1516 1507 1502 1507 1506 1501 1505 1509 1511 1514 1516 1517 1519 1520 1521 1521 1521 1521 1520 1520 1519 1517 1516 1515 1513 1511 1510 1508 1505 1503 1501 1500 1498 1496 1493 1491 1489 1488 1487 1486 1485 1484 1484 1484 1484
1502 1503 1500 1512 1508 1510 1501 1500 1505 1502 1505 1508 1510 1512 1514 1515 1517 1518 1519 1520 1520 1520 1519 1518 1517 1516 1515 1514 1512 1511 1508 1506 1504 1502 1501 1499 1496 1494 1492 1490 1488 1487 1485 1484 1483 1482 1481 1481 1481
1502 1502 1504 1512 1518 1517 1503 1501 1505 1504 1503 1505 1506 1509 1511 1513 1515 1516 1517 1518 1518 1518 1518 1517 1516 1515 1514 1513 1512 1510 1508 1506 1504 1502 1500 1497 1495 1493 1491 1489 1487 1486 1484 1483 1481 1480 1479 1478 1478
1505 1506 1507 1508 1508 1520 1520 1515 1495 1499 1501 1503 1504 1506 1508 1510 1512 1514 1515 1516 1517 1517 1516 1516 1515 1514 1513 1512 1510 1509 1507 1505 1503 1501 1499 1497 1495 1492 1490 1488 1486 1485 1483 1481 1479 1478 1477 1476 1475
1496 1499 1502 1514 1510 1506 1517 1515 1495 1498 1500 1502 1503 1505 1506 1508 1510 1512 1513 1514 1515 1515 1515 1515 1514 1513 1512 1510 1509 1508 1506 1504 1502 1500 1498 1495 1493 1491 1489 1487 1485 1483 1481 1479 1477 1476 1474 1473 1472